[[{"header":{"parameterUnit":"m.s-1","parameterCategory":1,"la1":30.2992,"la2":30.254,"lo1":-89.0895,"lo2":-89.0443,"dy":0.0025,"dx":0.0025,"nx":19,"ny":19,"refTime":"2026-03-26T21:00:00:Z","depth":0,"parameterNumber":2,"parameterNumberName":"U-component_of_WINDS"},"data":[0,0,0,-2.0321,-2.032,-2.0226,-2.0225,-2.0133,-2.0132,0,0,0,0,0,0,0,0,0,0,0,-2.0366,-2.0366,-2.0321,-2.032,-2.0226,-2.0225,-2.0133,-2.0132,0,0,0,0,0,0,0,0,0,0,0,-2.0366,-2.0366,-2.0366,-2.0319,-2.0226,-2.0225,-2.0133,-2.0194,0,0,0,0,0,0,0,0,0,0,-2.028,-2.0338,-2.0366,-2.0366,-2.0319,-2.0226,-2.0225,-2.0196,-2.019,-2.0187,0,-2.019,0,-2.016,-2.0128,-2.0127,0,0,0,-2.0306,-2.0343,-2.0303,-2.0366,-2.0318,-2.0226,-2.0264,-2.0192,-2.0185,-2.0179,-2.0188,-2.0184,-2.0158,-2.0127,-2.0127,-2.0157,-2.0158,0,0,-2.0311,-2.0358,-2.0308,-2.0299,-2.0317,-2.0268,-2.0262,-2.0188,-2.02,-2.0188,-2.0181,-2.0157,-2.0127,-2.0126,-2.0157,-2.0158,0,0,0,-2.0335,-2.0362,-2.0323,-2.0304,-2.0285,-2.0265,-2.0258,-2.0203,-2.0187,-2.018,-2.0156,-2.0126,-2.0126,-2.0156,-2.0157,-2.024,0,0,0,-2.0338,-2.0376,-2.0326,-2.0353,-2.0287,-2.0243,-2.0277,-2.0192,-2.0182,-2.0156,-2.0126,-2.0125,-2.0155,-2.0156,-2.0236,-2.0271,0,0,0,-2.0366,-2.0379,-2.0372,-2.0356,-2.0318,-2.0243,-2.0222,-2.0189,-2.0168,-2.0127,-2.0125,-2.0154,-2.0156,-2.0232,-2.0264,-2.0292,0,0,0,-2.041,-2.0445,-2.0374,-2.0404,-2.0319,-2.0297,-2.0222,-2.0202,-2.0178,-2.0126,-2.0155,-2.0157,-2.0231,-2.026,-2.0289,-2.0323,-2.0343,0,0,-2.048,-2.0455,-2.047,-2.0403,-2.0406,-2.0307,-2.0321,-2.0253,-2.0206,-2.0176,-2.0176,-2.0237,-2.0264,-2.0291,-2.0437,-2.0453,0,0,0,-2.0508,-2.0519,-2.0509,-2.0489,-2.044,-2.0401,-2.0327,-2.0302,-2.0275,-2.0201,-2.0254,-2.0268,-2.0283,-2.0297,-2.031,-2.0319,-2.0166,-2.0166,-2.0166,-2.0673,-2.0613,-2.0633,-2.0563,-2.0544,-2.0469,-2.0448,-2.0402,-2.0345,-2.0359,-2.0349,-2.0445,-2.0463,-2.0473,-2.0483,-2.0364,-2.0364,-2.0364,-2.0364,-2.077,-2.0775,-2.0703,-2.0696,-2.0633,-2.0626,-2.0556,-2.0517,-2.0501,-2.0447,-2.0456,-2.04,-2.0492,-2.0498,-2.037,-2.0369,-2.0368,-2.0368,-2.0367,-2.0869,-2.0862,-2.0833,-2.0799,-2.078,-2.0708,-2.0697,-2.0639,-2.0585,-2.0595,-2.0578,-2.0576,-2.0567,-2.0591,-2.0592,-2.0592,-2.0592,-2.0593,-2.0593,-2.0983,-2.0949,-2.0947,-2.0901,-2.0881,-2.0848,-2.0776,-2.0755,-2.0717,-2.0675,-2.0675,-2.0617,-2.0513,-2.0487,-2.0598,-2.0597,-2.0596,-2.0596,-2.0595,-2.1101,-2.1066,-2.1064,-2.1045,-2.0986,-2.0972,-2.09,-2.0863,-2.0837,-2.0834,-2.0776,-2.0708,-2.0678,-2.0667,-2.0645,-2.0789,-2.0789,-2.0789,-2.0789,-2.1184,-2.1165,-2.115,-2.1124,-2.1091,-2.1027,-2.1027,-2.0972,-2.0909,-2.089,-2.0861,-2.0828,-2.082,-2.0794,-2.078,-2.0759,-2.0929,-2.0929,-2.0929,-2.1253,-2.1228,-2.1238,-2.1178,-2.1129,-2.1089,-2.1086,-2.1059,-2.0981,-2.0934,-2.0874,-2.0868,-2.0813,-2.0799,-2.0748,-2.0728,-2.0687,0,0]},{"header":{"parameterUnit":"m.s-1","parameterCategory":1,"la1":30.2992,"la2":30.254,"lo1":-89.0895,"lo2":-89.0443,"dy":0.0025,"dx":0.0025,"nx":19,"ny":19,"refTime":"2026-03-26T21:00:00:Z","depth":0,"parameterNumber":3,"parameterNumberName":"V-component_of_WINDS"},"data":[0,0,0,3.2904,3.2903,3.2847,3.2847,3.2756,3.2755,0,0,0,0,0,0,0,0,0,0,0,3.2911,3.291,3.2904,3.2903,3.2847,3.2847,3.2756,3.2755,0,0,0,0,0,0,0,0,0,0,0,3.2911,3.291,3.2909,3.2902,3.2847,3.2847,3.2756,3.2805,0,0,0,0,0,0,0,0,0,0,3.2862,3.2858,3.291,3.2909,3.2902,3.2847,3.2847,3.2807,3.2801,3.2773,0,3.2747,0,3.275,3.2747,3.2747,0,0,0,3.2909,3.2863,3.2858,3.2909,3.2901,3.2847,3.2874,3.2804,3.2798,3.2765,3.2746,3.2743,3.2748,3.2747,3.2746,3.2566,3.2565,0,0,3.2912,3.2894,3.2862,3.2853,3.2863,3.2876,3.2872,3.2801,3.2777,3.2746,3.2741,3.2747,3.2746,3.2745,3.2567,3.2566,0,0,0,3.2917,3.2896,3.2893,3.2856,3.2848,3.2874,3.287,3.278,3.2781,3.274,3.2745,3.2745,3.2744,3.2568,3.2567,3.2491,0,0,0,3.2919,3.2899,3.2894,3.2882,3.2849,3.2814,3.285,3.2786,3.2778,3.2746,3.2745,3.2743,3.257,3.2567,3.2496,3.2457,0,0,0,3.2917,3.2899,3.2888,3.2881,3.2857,3.2815,3.2812,3.2785,3.2781,3.2747,3.2743,3.2571,3.2568,3.2501,3.2464,3.2404,0,0,0,3.291,3.282,3.2886,3.2788,3.2857,3.2771,3.2813,3.2749,3.2711,3.2745,3.2569,3.2567,3.2502,3.2469,3.2408,3.2347,3.2321,0,0,3.2786,3.2804,3.2748,3.2806,3.2703,3.2781,3.2667,3.2648,3.266,3.2596,3.2592,3.2495,3.2465,3.2405,3.2186,3.2165,0,0,0,3.2702,3.2661,3.2638,3.2603,3.2589,3.2573,3.2575,3.2568,3.2515,3.2624,3.2459,3.2441,3.2406,3.2378,3.236,3.2331,3.2554,3.2554,3.2554,3.2497,3.2521,3.2429,3.2447,3.2412,3.2417,3.239,3.2382,3.2413,3.2374,3.2354,3.2219,3.2185,3.2172,3.2141,3.2327,3.2326,3.2326,3.2326,3.2315,3.2259,3.2309,3.2237,3.2263,3.2202,3.2204,3.2229,3.2175,3.2235,3.2206,3.2266,3.2148,3.2122,3.232,3.2321,3.2322,3.2323,3.2323,3.218,3.2157,3.2154,3.2108,3.2069,3.209,3.2037,3.2063,3.2086,3.2057,3.2038,3.2039,3.2041,3.2047,3.2047,3.2046,3.2046,3.2046,3.2045,3.2039,3.2039,3.1992,3.1972,3.1954,3.1934,3.194,3.1922,3.1909,3.1931,3.1931,3.1966,3.2134,3.2174,3.2038,3.2039,3.204,3.2041,3.2041,3.1839,3.189,3.1817,3.18,3.178,3.174,3.1776,3.1737,3.1727,3.17,3.1743,3.1864,3.1883,3.1898,3.193,3.174,3.174,3.174,3.174,3.1723,3.1738,3.1671,3.1641,3.1614,3.164,3.1557,3.1562,3.1575,3.1569,3.1602,3.1649,3.1663,3.1674,3.1693,3.1724,3.1485,3.1484,3.1484,3.1601,3.1615,3.1538,3.1555,3.1542,3.153,3.1452,3.1415,3.144,3.1474,3.1565,3.1576,3.1653,3.1677,3.1708,3.1737,3.1795,0,0]}]]